Ruidoso, NM

12:52 PM MST on December 16, 2017 (GMT -0700)
Sierra Blanca Regional

Weather History for KSRR - September, 2014

Change the Weather History Date:

Thursday, September 4, 2014

  Actual Average Record
Temperature  
Mean Temperature 66 °F -  
Max Temperature 77 °F 76 °F 86 °F (2000)
Min Temperature 55 °F 53 °F 50 °F (2010)
Cooling Degree Days 1    
Growing Degree Days 16 (Base 50)    
Moisture  
Dew Point 53 °F    
Average Humidity 73    
Maximum Humidity 100    
Minimum Humidity 36    
Precipitation  
Precipitation 0.18 in - - ()
Sea Level Pressure  
Sea Level Pressure 30.21 in    
Wind  
Wind Speed 5 mph (SSW)    
Max Wind Speed 18 mph    
Max Gust Speed 23 mph    
Visibility 9 miles    
Events Rain , Thunderstorm    
Averages and records for this station are not official NWS values.
T = Trace of Precipitation, MM = Missing Value Source: NWS Daily Summary

Daily Weather History Graph

Daily Weather History Graph

Search for Another Location

Airport or City:

Trip Planner

Search our weather history database for the weather conditions in past years. The results will help you decide how hot, cold, wet, or windy it might be!

Date:

Astronomy

Sep. 04, 2014 Rise Set
Actual Time 6:38 AM MDT 7:23 PM MDT
Civil Twilight 6:13 AM MDT 7:48 PM MDT
Nautical Twilight 5:43 AM MDT 8:18 PM MDT
Astronomical Twilight 5:12 AM MDT 8:48 PM MDT
Moon 3:54 PM MDT (9/4) 1:41 AM MDT (9/4)
Length of Visible Light 13h 35m
Length of Day
12h 45m
Waxing Gibbous, 75% of the Moon is Illuminated
Sep 4
Waxing Gibbous
Sep 8
Full
Sep 15
Last Quarter
Sep 24
New
Oct 1
First Quarter

Hourly Weather History & Observations

Time (MDT) Temp. Dew Point Humidity Pressure Visibility Wind Dir Wind Speed Gust Speed Precip Events Conditions
12:15 AM 62.6 °F 55.4 °F 77% 30.20 in 10.0 mi ESE 4.6 mph - N/A   Clear
12:55 AM 60.8 °F 55.4 °F 82% 30.19 in 10.0 mi Calm Calm - N/A   Clear
1:15 AM 60.8 °F 55.4 °F 82% 30.19 in 10.0 mi South 3.5 mph - N/A   Clear
1:35 AM 60.8 °F 55.4 °F 82% 30.19 in 10.0 mi Calm Calm - N/A   Clear
1:55 AM 62.6 °F 55.4 °F 77% 30.18 in 10.0 mi Calm Calm - N/A   Clear
2:15 AM 59.0 °F 55.4 °F 88% 30.18 in 10.0 mi Calm Calm - N/A   Clear
2:35 AM 57.2 °F 53.6 °F 88% 30.18 in 10.0 mi SSW 5.8 mph - N/A   Clear
2:55 AM 57.2 °F 53.6 °F 88% 30.17 in 10.0 mi South 3.5 mph - N/A   Clear
3:15 AM 59.0 °F 53.6 °F 82% 30.16 in 10.0 mi SW 5.8 mph - N/A   Clear
3:35 AM 57.2 °F 53.6 °F 88% 30.16 in 10.0 mi SSW 4.6 mph - N/A   Clear
3:55 AM 59.0 °F 55.4 °F 88% 30.16 in 10.0 mi SW 3.5 mph - N/A   Clear
4:15 AM 59.0 °F 55.4 °F 88% 30.16 in 10.0 mi SW 5.8 mph - N/A   Clear
4:35 AM 57.2 °F 53.6 °F 88% 30.16 in 10.0 mi SW 6.9 mph - N/A   Clear
4:55 AM 57.2 °F 48.2 °F 72% 30.16 in 10.0 mi SSW 6.9 mph - N/A   Clear
5:15 AM 59.0 °F 48.2 °F 67% 30.16 in 10.0 mi West 5.8 mph - N/A   Clear
5:35 AM 57.2 °F 48.2 °F 72% 30.16 in 10.0 mi West 3.5 mph - N/A   Clear
5:55 AM 57.2 °F 50.0 °F 77% 30.16 in 10.0 mi WNW 5.8 mph - N/A   Clear
6:15 AM 57.2 °F 48.2 °F 72% 30.16 in 10.0 mi West 4.6 mph - N/A   Clear
6:35 AM 59.0 °F 48.2 °F 67% 30.17 in 10.0 mi West 5.8 mph - N/A   Clear
6:55 AM 60.8 °F 50.0 °F 68% 30.17 in 10.0 mi WNW 5.8 mph - N/A   Clear
7:15 AM 62.6 °F 50.0 °F 63% 30.18 in 10.0 mi WNW 4.6 mph - N/A   Clear
7:35 AM 64.4 °F 50.0 °F 59% 30.18 in 10.0 mi Calm Calm - N/A   Clear
7:55 AM 64.4 °F 51.8 °F 64% 30.18 in 10.0 mi WNW 4.6 mph - N/A   Clear
8:15 AM 66.2 °F 50.0 °F 56% 30.19 in 10.0 mi Calm Calm - N/A   Clear
8:35 AM 68.0 °F 50.0 °F 52% 30.19 in 10.0 mi Calm Calm - N/A   Clear
8:55 AM 71.6 °F 50.0 °F 46% 30.19 in 10.0 mi ENE 5.8 mph - N/A   Clear
9:15 AM 71.6 °F 50.0 °F 46% 30.20 in 10.0 mi East 3.5 mph - N/A   Clear
9:35 AM 71.6 °F 51.8 °F 50% 30.21 in 10.0 mi SSE 6.9 mph - N/A   Clear
9:55 AM 71.6 °F 53.6 °F 53% 30.22 in 10.0 mi SSE 9.2 mph - N/A   Clear
10:15 AM 71.6 °F 53.6 °F 53% 30.23 in 10.0 mi SE 10.4 mph - N/A   Clear
10:35 AM 73.4 °F 53.6 °F 50% 30.23 in 10.0 mi SE 10.4 mph - N/A   Clear
10:55 AM 73.4 °F 53.6 °F 50% 30.23 in 10.0 mi SE 9.2 mph 16.1 mph N/A   Clear
11:15 AM 75.2 °F 51.8 °F 44% 30.23 in 10.0 mi ESE 10.4 mph - N/A   Clear
11:35 AM 75.2 °F 50.0 °F 41% 30.22 in 10.0 mi SE 10.4 mph - N/A   Clear
11:55 AM 75.2 °F 50.0 °F 41% 30.22 in 10.0 mi ESE 9.2 mph - N/A   Clear
12:15 PM 77.0 °F 48.2 °F 36% 30.21 in 10.0 mi ESE 9.2 mph 16.1 mph N/A   Clear
12:35 PM 77.0 °F 51.8 °F 41% 30.20 in 10.0 mi East 11.5 mph 17.3 mph N/A Thunderstorm Thunderstorm
12:55 PM 75.2 °F 51.8 °F 44% 30.19 in 10.0 mi ESE 13.8 mph 18.4 mph N/A   Clear
1:15 PM 75.2 °F 50.0 °F 41% 30.19 in 10.0 mi ESE 9.2 mph - N/A Thunderstorm Clear
1:35 PM 75.2 °F 51.8 °F 44% 30.18 in 10.0 mi East 9.2 mph - N/A Thunderstorm Clear
1:55 PM 73.4 °F 51.8 °F 47% 30.18 in 10.0 mi East 9.2 mph - N/A Thunderstorm Partly Cloudy
2:15 PM 71.6 °F 50.0 °F 46% 30.18 in 10.0 mi WNW 10.4 mph - N/A Thunderstorm Scattered Clouds
2:35 PM 66.2 °F 50.0 °F 56% 30.18 in 10.0 mi West 15.0 mph 18.4 mph N/A   Mostly Cloudy
2:55 PM 60.8 °F 55.4 °F 82% 30.19 in 4.0 mi WSW 18.4 mph - N/A Rain , Thunderstorm Light Thunderstorms and Rain
3:15 PM 60.8 °F 55.4 °F 82% 30.18 in 1.0 mi West 16.1 mph - 0.01 in Rain , Thunderstorm Heavy Thunderstorms and Rain
3:55 PM 55.4 °F 48.2 °F 77% 30.20 in 1.8 mi North 12.7 mph 23.0 mph 0.03 in Rain , Thunderstorm Light Rain
4:35 PM 57.2 °F 50.0 °F 77% 30.21 in 8.0 mi North 5.8 mph - 0.01 in Thunderstorm Thunderstorm
5:35 PM 59.0 °F 55.4 °F 88% 30.21 in 10.0 mi WSW 9.2 mph - 0.01 in   Clear
5:55 PM 59.0 °F 55.4 °F 88% 30.21 in 4.0 mi WSW 8.1 mph - 0.02 in Rain Light Rain
6:15 PM 59.0 °F 55.4 °F 88% 30.21 in 7.0 mi West 3.5 mph - N/A Rain Light Rain
6:35 PM 59.0 °F 55.4 °F 88% 30.20 in 4.0 mi ESE 3.5 mph - 0.01 in Rain Light Rain
6:55 PM 59.0 °F 57.2 °F 94% 30.21 in 10.0 mi SSE 4.6 mph - 0.02 in   Mostly Cloudy
7:15 PM 59.0 °F 57.2 °F 94% 30.22 in 10.0 mi SSW 4.6 mph - 0.01 in Thunderstorm Scattered Clouds
7:35 PM 59.0 °F 57.2 °F 94% 30.24 in 10.0 mi WSW 6.9 mph - 0.02 in Thunderstorm Thunderstorm
7:55 PM 59.0 °F 57.2 °F 94% 30.26 in 10.0 mi West 8.1 mph - 0.02 in Thunderstorm Mostly Cloudy
8:15 PM 59.0 °F 57.2 °F 94% 30.27 in 10.0 mi West 8.1 mph - 0.01 in Rain , Thunderstorm Light Thunderstorms and Rain
8:35 PM 57.2 °F 55.4 °F 94% 30.28 in 4.0 mi WNW 8.1 mph - 0.01 in Rain Rain
8:55 PM 57.2 °F 55.4 °F 94% 30.29 in 7.0 mi West 8.1 mph - 0.02 in Rain Light Rain
9:15 PM 57.2 °F 55.4 °F 94% 30.28 in 5.0 mi NNW 3.5 mph - 0.01 in Rain Rain
9:35 PM 57.2 °F 55.4 °F 94% 30.27 in 10.0 mi West 4.6 mph - 0.02 in Rain , Thunderstorm Light Thunderstorms and Rain
9:55 PM 57.2 °F 55.4 °F 94% 30.28 in 7.0 mi SSW 5.8 mph - 0.02 in Rain Light Rain
10:15 PM 57.2 °F 55.4 °F 94% 30.28 in 10.0 mi South 6.9 mph - 0.01 in Thunderstorm Partly Cloudy
10:35 PM 57.2 °F 57.2 °F 100% 30.29 in 10.0 mi SSE 8.1 mph - 0.02 in Rain Light Rain
11:15 PM 57.2 °F 57.2 °F 100% 30.29 in 2.5 mi South 9.2 mph - 0.01 in Rain Rain
11:55 PM 57.2 °F 57.2 °F 100% 30.30 in 5.0 mi WSW 5.8 mph - 0.02 in Rain Light Rain